Weather History for KCKC - November, 2013

Change the Weather History Date:

Tuesday, November 5, 2013

  Actual Average Record
Temperature  
Mean Temperature 30 °F -  
Max Temperature 35 °F 35 °F 55 °F (2001)
Min Temperature 26 °F 24 °F 17 °F (1997)
Degree Days  
Heating Degree Days 34    
Moisture  
Dew Point 23 °F    
Average Humidity 74    
Maximum Humidity 93    
Minimum Humidity 56    
Precipitation  
Precipitation 0.00 in - - ()
Sea Level Pressure  
Sea Level Pressure 30.05 in    
Wind  
Wind Speed 6 mph (SW)    
Max Wind Speed 12 mph    
Max Gust Speed 17 mph    
Visibility 10 miles    
Events      
Averages and records for this station are not official NWS values.
T = Trace of Precipitation, MM = Missing Value Source: NWS Daily Summary

Daily Weather History Graph

Daily Weather History Graph

Search for Another Location

Airport or City:

Trip Planner

Search our weather history database for the weather conditions in past years. The results will help you decide how hot, cold, wet, or windy it might be!

Date:

Astronomy

Nov. 05, 2013 Rise Set
Actual Time 6:52 AM CST 4:36 PM CST
Civil Twilight 6:19 AM CST 5:09 PM CST
Nautical Twilight 5:42 AM CST 5:46 PM CST
Astronomical Twilight 5:06 AM CST 6:22 PM CST
Moon 9:14 AM CST 6:31 PM CST
Length of Visible Light 10h 49m
Length of Day
9h 44m
Waxing Crescent, 7% of the Moon is Illuminated
Nov 5
Waxing Crescent
Nov 9
First Quarter
Nov 17
Full
Nov 25
Last Quarter
Dec 2
New

Hourly Weather History & Observations

Time (CST) Temp. Windchill Dew Point Humidity Pressure Visibility Wind Dir Wind Speed Gust Speed Precip Events Conditions
12:14 AM 30.2 °F 22.6 °F 26.6 °F 86% 29.98 in 10.0 mi SSW 8.1 mph - N/A   Scattered Clouds
12:33 AM 30.2 °F 23.4 °F 26.6 °F 86% 29.99 in 10.0 mi SSW 6.9 mph - N/A   Clear
12:53 AM 30.2 °F 22.6 °F 26.6 °F 86% 29.99 in 10.0 mi SW 8.1 mph - N/A   Clear
1:13 AM 30.2 °F 25.4 °F 26.6 °F 86% 30.00 in 10.0 mi SSW 4.6 mph - N/A   Clear
1:33 AM 28.4 °F 22.2 °F 26.6 °F 93% 30.00 in 10.0 mi SW 5.8 mph - N/A   Clear
1:53 AM 28.4 °F 23.3 °F 26.6 °F 93% 30.01 in 10.0 mi SW 4.6 mph - N/A   Clear
2:13 AM 28.4 °F 21.2 °F 24.8 °F 86% 30.01 in 10.0 mi SW 6.9 mph - N/A   Clear
2:34 AM 28.4 °F 21.2 °F 24.8 °F 86% 30.01 in 10.0 mi SW 6.9 mph - N/A   Clear
2:54 AM 28.4 °F 20.4 °F 24.8 °F 86% 30.02 in 10.0 mi SW 8.1 mph - N/A   Clear
3:13 AM 28.4 °F 21.2 °F 24.8 °F 86% 30.02 in 10.0 mi SW 6.9 mph - N/A   Clear
3:33 AM 28.4 °F 22.2 °F 24.8 °F 86% 30.02 in 10.0 mi SW 5.8 mph - N/A   Clear
3:53 AM 28.4 °F 22.2 °F 24.8 °F 86% 30.02 in 10.0 mi SW 5.8 mph - N/A   Clear
4:13 AM 28.4 °F 21.2 °F 24.8 °F 86% 30.03 in 10.0 mi SW 6.9 mph - N/A   Clear
4:33 AM 28.4 °F 20.4 °F 23.0 °F 80% 30.03 in 10.0 mi SW 8.1 mph - N/A   Clear
4:54 AM 28.4 °F 23.3 °F 23.0 °F 80% 30.04 in 10.0 mi SW 4.6 mph - N/A   Clear
5:14 AM 28.4 °F 21.2 °F 23.0 °F 80% 30.03 in 10.0 mi SSW 6.9 mph - N/A   Clear
5:33 AM 28.4 °F 20.4 °F 23.0 °F 80% 30.03 in 10.0 mi SSW 8.1 mph - N/A   Clear
5:54 AM 26.6 °F 16.8 °F 23.0 °F 86% 30.04 in 10.0 mi SW 10.4 mph 16.1 mph N/A   Clear
6:14 AM 28.4 °F 19.7 °F 21.2 °F 74% 30.03 in 10.0 mi SW 9.2 mph - N/A   Clear
6:33 AM 26.6 °F 21.2 °F 21.2 °F 80% 30.04 in 10.0 mi SW 4.6 mph - N/A   Clear
6:53 AM 26.6 °F 21.2 °F 21.2 °F 80% 30.04 in 10.0 mi SW 4.6 mph - N/A   Clear
7:14 AM 26.6 °F 21.2 °F 21.2 °F 80% 30.06 in 10.0 mi WSW 4.6 mph - N/A   Clear
7:34 AM 28.4 °F 20.4 °F 21.2 °F 74% 30.05 in 10.0 mi SW 8.1 mph - N/A   Clear
7:53 AM 28.4 °F 20.4 °F 21.2 °F 74% 30.05 in 10.0 mi WSW 8.1 mph - N/A   Clear
8:13 AM 28.4 °F 20.4 °F 21.2 °F 74% 30.05 in 10.0 mi WSW 8.1 mph 17.3 mph N/A   Clear
8:34 AM 30.2 °F 22.6 °F 21.2 °F 69% 30.05 in 10.0 mi WSW 8.1 mph - N/A   Clear
8:54 AM 30.2 °F 22.6 °F 21.2 °F 69% 30.06 in 10.0 mi WSW 8.1 mph - N/A   Clear
9:13 AM 30.2 °F 22.6 °F 21.2 °F 69% 30.07 in 10.0 mi WSW 8.1 mph - N/A   Clear
9:34 AM 32.0 °F 26.4 °F 21.2 °F 64% 30.07 in 10.0 mi West 5.8 mph - N/A   Clear
9:54 AM 30.2 °F 24.3 °F 21.2 °F 69% 30.08 in 10.0 mi SSW 5.8 mph - N/A   Clear
10:13 AM 32.0 °F 27.5 °F 21.2 °F 64% 30.08 in 10.0 mi WSW 4.6 mph - N/A   Clear
10:34 AM 33.8 °F 27.7 °F 21.2 °F 60% 30.08 in 10.0 mi SW 6.9 mph - N/A   Clear
10:54 AM 35.6 °F 28.6 °F 21.2 °F 56% 30.09 in 10.0 mi WSW 9.2 mph - N/A   Clear
11:13 AM 35.6 °F 29.2 °F 21.2 °F 56% 30.10 in 10.0 mi SSW 8.1 mph - N/A   Clear
11:34 AM 35.6 °F 29.2 °F 21.2 °F 56% 30.09 in 10.0 mi SSW 8.1 mph - N/A   Clear
11:53 AM 35.6 °F 28.0 °F 21.2 °F 56% 30.09 in 10.0 mi SSW 10.4 mph - N/A   Clear
12:13 PM 35.6 °F 29.9 °F 23.0 °F 60% 30.10 in 10.0 mi South 6.9 mph - N/A   Clear
12:34 PM 35.6 °F 27.5 °F 21.2 °F 56% 30.10 in 10.0 mi SSW 11.5 mph 16.1 mph N/A   Clear
12:53 PM 35.6 °F 29.9 °F 23.0 °F 60% 30.10 in 10.0 mi South 6.9 mph 16.1 mph N/A   Clear
1:13 PM 35.6 °F 28.0 °F 24.8 °F 65% 30.11 in 10.0 mi SSW 10.4 mph - N/A   Clear
1:34 PM 33.8 °F 27.0 °F 24.8 °F 70% 30.11 in 10.0 mi South 8.1 mph 17.3 mph N/A   Clear
1:53 PM 33.8 °F 27.7 °F 24.8 °F 70% 30.10 in 10.0 mi SSW 6.9 mph - N/A   Clear
2:13 PM 33.8 °F 28.6 °F 24.8 °F 70% 30.10 in 10.0 mi SSW 5.8 mph - N/A   Clear
2:34 PM 33.8 °F 28.6 °F 24.8 °F 70% 30.09 in 10.0 mi SSW 5.8 mph - N/A   Clear
2:53 PM 33.8 °F 27.0 °F 24.8 °F 70% 30.09 in 10.0 mi SSW 8.1 mph - N/A   Clear
3:13 PM 33.8 °F 30.8 °F 24.8 °F 70% 30.09 in 10.0 mi SSW 3.5 mph - N/A   Clear
3:34 PM 33.8 °F 30.8 °F 24.8 °F 70% 30.09 in 10.0 mi WSW 3.5 mph - N/A   Clear
3:53 PM 33.8 °F 27.7 °F 21.2 °F 60% 30.08 in 10.0 mi SW 6.9 mph - N/A   Clear
4:13 PM 33.8 °F 28.6 °F 21.2 °F 60% 30.07 in 10.0 mi WSW 5.8 mph - N/A   Clear
4:34 PM 33.8 °F - 21.2 °F 60% 30.06 in 10.0 mi Calm Calm - N/A   Clear
4:53 PM 33.8 °F 28.6 °F 23.0 °F 65% 30.06 in 10.0 mi West 5.8 mph - N/A   Clear
5:13 PM 32.0 °F - 21.2 °F 64% 30.06 in 10.0 mi Calm Calm - N/A   Clear
5:33 PM 32.0 °F - 21.2 °F 64% 30.06 in 10.0 mi Calm Calm - N/A   Clear
5:53 PM 30.2 °F - 21.2 °F 69% 30.07 in 10.0 mi Calm Calm - N/A   Clear
6:13 PM 30.2 °F 26.7 °F 23.0 °F 75% 30.08 in 10.0 mi West 3.5 mph - N/A   Clear
6:34 PM 30.2 °F - 23.0 °F 75% 30.07 in 10.0 mi Calm Calm - N/A   Scattered Clouds
6:54 PM 30.2 °F - 23.0 °F 75% 30.06 in 10.0 mi Calm Calm - N/A   Scattered Clouds
7:14 PM 30.2 °F 26.7 °F 23.0 °F 75% 30.04 in 10.0 mi WNW 3.5 mph - N/A   Scattered Clouds
7:33 PM 30.2 °F 26.7 °F 23.0 °F 75% 30.04 in 10.0 mi NW 3.5 mph - N/A   Mostly Cloudy
7:53 PM 30.2 °F 25.4 °F 23.0 °F 75% 30.04 in 10.0 mi NW 4.6 mph - N/A   Overcast
8:14 PM 30.2 °F 26.7 °F 23.0 °F 75% 30.04 in 10.0 mi NW 3.5 mph - N/A   Mostly Cloudy
8:34 PM 30.2 °F 26.7 °F 23.0 °F 75% 30.04 in 10.0 mi NW 3.5 mph - N/A   Mostly Cloudy
8:54 PM 30.2 °F 26.7 °F 23.0 °F 75% 30.04 in 10.0 mi WNW 3.5 mph - N/A   Mostly Cloudy
9:14 PM 30.2 °F - 23.0 °F 75% 30.04 in 10.0 mi Calm Calm - N/A   Scattered Clouds
9:34 PM 30.2 °F - 23.0 °F 75% 30.04 in 10.0 mi Calm Calm - N/A   Scattered Clouds
9:53 PM 30.2 °F - 23.0 °F 75% 30.03 in 10.0 mi Calm Calm - N/A   Mostly Cloudy
10:13 PM 30.2 °F - 23.0 °F 75% 30.03 in 10.0 mi Calm Calm - N/A   Mostly Cloudy
10:34 PM 28.4 °F - 23.0 °F 80% 30.01 in 10.0 mi Calm Calm - N/A   Mostly Cloudy
10:53 PM 28.4 °F 24.6 °F 23.0 °F 80% 30.00 in 10.0 mi NW 3.5 mph - N/A   Overcast
11:14 PM 28.4 °F 24.6 °F 23.0 °F 80% 30.00 in 10.0 mi NNW 3.5 mph - N/A   Overcast
11:33 PM 28.4 °F 22.2 °F 23.0 °F 80% 29.99 in 10.0 mi NNW 5.8 mph - N/A   Overcast
11:53 PM 28.4 °F 21.2 °F 21.2 °F 74% 29.98 in 10.0 mi NNW 6.9 mph - N/A   Overcast